Regional Weather Roundup
Issued by NWS Goodland, KS

Home | Current Version | Previous Version | Text Only | Print | Product List | Glossary On
Versions: 1 2 3 4 5 6 7 8 9 10 11 12 13 14 15 16 17 18 19 20 21 22 23 24 25 26 27 28 29 30 31 32 33 34 35 36 37 38 39 40 41 42 43 44 45 46 47 48 49 50
000
ASUS43 KGLD 231508
RWRGLD

GOODLAND FORECAST AREA HOURLY WEATHER ROUNDUP
NATIONAL WEATHER SERVICE GOODLAND KS
800 AM MST SUN NOV 23 2014

...OFFICIAL OBSERVATIONS...

CITY           SKY/WX    TMP DP  RH WIND       PRES   REMARKS
GOODLAND KS    CLOUDY    41  17  38 N24G33    29.69R
HILL CITY KS   CLOUDY    46  31  55 N31G39    29.61R
IMPERIAL NEB   CLOUDY    40  18  41 N16       29.70R
MCCOOK NEB     CLOUDY    45  23  42 N23G33    29.66R
AKRON CO       CLOUDY    32  18  56 N16       29.74R
BURLINGTON CO  CLOUDY    40  12  32 N25G37    29.70R
LIMON CO       PTSUNNY   30  20  66 N16       29.74R WCI  19
$$

...UNOFFICIAL OBSERVATIONS...

CITY           SKY/WX    TMP DP  RH WIND       PRES   REMARKS
COLBY KS       CLOUDY    45  32  61 NW20G30   29.66R
GOVE KS          N/A     46  32  58 MISG        N/A
NORTON KS      DRIZZLE   45  28  53 N24G36    29.61R
SHARON SPRINGS   N/A     44  23  43 N32G45      N/A
TRIBUNE KS     CLOUDY    45  27  49 N28G37    29.65R
TRENTON NEB      N/A     43  32  65 NW18        N/A
YUMA CO          N/A     37  15  41 N18         N/A
$$



USA.gov is the U.S. government's official web portal to all federal, state and local government web resources and services.